Погода в Березовке

Россия / Саратовская область     52°05′45″N   45°07′05″E
темп.,
°C
ветер,
м/с
пор.,
м/с
влажн.,
%
обл.,
%
осадки,
мм/ч
давл.,
гПа
погр.,
м
2 декабря, чт
чт201:00−2юз4107954 0.0 1001455
04:00−3ююз4108697 0.0 1002345
07:00−2юз51191100 0.0 1003515
10:00−1зюз6108999 0.1 1005923
13:00−2з71064100 0.1 10081068
16:00−2зюз6106872 0.1 1010831
19:00−3юз51176100 0.0 1011478
22:00−2юз6127375 0.0 1012511
3 декабря, пт
пт301:00−2юз7157590 0.0 1011580
04:00−1юз71696100 0.6 1011597
07:00+1юз71493100 0.1 1010505
10:00+2юз61395100 0.2 1012503
13:00+3юз61397100 0.0 1013500
16:00+3ююз51298100 0.0 1014441
19:00+3ююз61298100 0.1 1015403
22:00+3ююз71595100 0.1 1014491
4 декабря, сб
сб401:00+3ююз8188189 0.0 1014514
04:00+2ю8187539 0.0 1013457
07:00+3ю91978100 0.0 1011547
10:00+4ююз81782100 0.0 1011569
13:00+4ююз71491100 1.2 1010559
16:00+3з4798100 4.5 1010704
19:00+1сз2399100 2.0 1013106
22:00+1зсз2690100 2.2 1014273
5 декабря, вс
вс501:00−2зсз3686100 0.0 1016143
04:00−3зсз36815 0.0 1017142
07:00−3зсз24845 0.0 1018143
10:00−3сз3683100 0.0 1020292
13:00−1ссз34685 0.0 1020468
16:00−1ссз23705 0.0 102186
19:00−3с227795 0.0 102229
22:00−3св228012 0.0 102335
6 декабря, пн
пн601:00−4всв3480100 0.0 102468
04:00−3всв2477100 0.0 1024107
07:00−3в2477100 0.0 1025122
10:00−4вюв257757 0.0 1026140
13:00−1вюв466452 0.0 1026358
16:00−2вюв367185 0.0 1026268
19:00−2вюв4874100 0.0 1027320
22:00−3вюв5117390 0.0 1028349